Regional Weather Roundup
Issued by NWS Green Bay, WI

Home | Current Version | Previous Version | Graphics & Text | Print | Product List | Glossary Off
Versions: 1 2 3 4 5 6 7 8 9 10 11 12 13 14 15 16 17 18 19 20 21 22 23 24 25 26 27 28 29 30 31 32 33 34 35 36 37 38 39 40 41 42 43 44 45 46 47 48 49 50

000
ASUS43 KGRB 200700
RWRGRB

NORTH-CENTRAL AND NORTHEAST WISCONSIN REGIONAL WEATHER ROUNDUP
NATIONAL WEATHER SERVICE GREEN BAY WI
100 AM CST FRI JAN 20 2017

WIZ005-009-010>012-018-019-200800-
NORTH CENTRAL WISCONSIN

CITY           SKY/WX    TMP DP  RH WIND       PRES   REMARKS
IRONWOOD       CLEAR     34  30  85 SW5       29.72F
MANITOWISH WTR NOT AVBL
ARBOR VITAE    NOT AVBL
EAGLE RIVER    NOT AVBL
LAND O LAKES   NOT AVBL
RHINELANDER    PTCLDY    29  29 100 CALM      29.73F FOG
PHILLIPS       CLOUDY    32  30  93 CALM      29.72F
ANTIGO         NOT AVBL
TOMAHAWK       NOT AVBL
MERRILL        MIX PCPN  32  32 100 CALM        N/A
$$

WIZ013-073-200800-
NORTHEAST WISCONSIN

CITY           SKY/WX    TMP DP  RH WIND       PRES   REMARKS
IRON MOUNTAIN  FOG       30  28  92 SE3       29.76S VSB 3/4
MARINETTE      NOT AVBL
$$

WIZ017-030-035>037-045-200800-
CENTRAL WISCONSIN

CITY           SKY/WX    TMP DP  RH WIND       PRES   REMARKS
MEDFORD        NOT AVBL
WAUSAU         MIX PCPN  31  30  96 E5        29.72F FOG
MOSINEE        NOT AVBL
MARSHFIELD     MIX PCPN  32  31  96 E6        29.71F FOG
WISC RAPIDS    LGT RAIN  33  33 100 E3        29.74F FOG
STEVENS POINT  NOT AVBL
WAUPACA        NOT AVBL
SHAWANO        NOT AVBL
CLINTONVILLE   CLOUDY    32  32 100 NE3       29.78F FOG
WAUTOMA        MIX PCPN  32  32 100 NE7       29.75F FOG
$$

WIZ038-039-048-051-200800-
FOX VALLEY

CITY           SKY/WX    TMP DP  RH WIND       PRES   REMARKS
NWS GREEN BAY  FOG       34  34 100 NE5       29.78F VSB 1/4
APPLETON       NOT AVBL
OSHKOSH        CLOUDY    33  32  96 N3        29.74F FOG
FOND DU LAC    LGT RAIN  34  31  88 N5        29.74F FOG
$$

WIZ022-050-052-200800-
EAST CENTRAL WISCONSIN

CITY           SKY/WX    TMP DP  RH WIND       PRES   REMARKS
EPHRAIM        NOT AVBL
WASHINGTON ISL NOT AVBL
STURGEON BAY   FOG       33  32  96 CALM      29.79F VSB 1/4
MANITOWOC      NOT AVBL
SHEBOYGAN      LGT RAIN  33  32  96 CALM      29.75F VSB 1/4
$$

LMZ563-521-522-541>543-200800-
LAKESHORE

STATION/POSITION TIME  TEMP    WIND        PRES    VSBY  WAVE
                       AIR SEA DIR/SP/G                  HT/PER
                 (UTC) (F)     (DEG/KT/KT) (MB)    (MI)  (FT/S)
SHEBOYGAN LKSHOR 0600   36      30/  4/  4 1008.8F
KEWAUNEE LKSHORE 0630   33      CALM  /  1 1008.3F
ALGOMA MARINA    0624             CALM       N/A
NORTHPORT PIER   0640   33        CALM     1009.5F
SISTER BAY LKSHO 0550   33        CALM       N/A
$$




USA.gov is the U.S. government's official web portal to all federal, state and local government web resources and services.